FW4335 Weather Reports


time (UTC)temp
F
wind
direction
speed
knots
gust
knots
rain 1hr
in
rain 24hr
in
rain mn
in
humidity
%
barometer
mb
20260504050142 59 247 0.0 1.7 0.00 0.00 0.00 73 1011.6
20260504044531 60 247 0.0 0.9 0.00 0.00 0.00 72 1011.4
20260504043038 61 218 0.0 2.6 0.00 0.00 0.00 70 1011.2
20260504041534 62 218 0.0 2.6 0.00 0.00 0.00 66 1010.9
20260504040046 63 218 0.9 3.5 0.00 0.00 0.00 64 1010.8
20260504034531 65 202 0.0 1.7 0.00 0.00 0.00 61 1010.5
20260504033031 68 202 0.9 2.6 0.00 0.00 0.00 57 1010.3
20260504031531 70 205 0.9 1.7 0.00 0.00 0.00 54 1010.2
20260504030030 73 197 1.7 2.6 0.00 0.00 0.00 51 1010.0
20260504024531 77 192 0.9 2.6 0.00 0.00 0.00 43 1009.9
20260504023134 80 45 0.0 1.7 0.00 0.00 0.00 36 1009.8
20260504021532 81 45 0.0 0.9 0.00 0.00 0.00 33 1009.9
20260504020029 82 32 0.0 2.6 0.00 0.00 0.00 30 1010.1
20260504014532 83 37 0.9 4.3 0.00 0.00 0.00 31 1010.2
20260504013034 84 40 0.0 4.3 0.00 0.00 0.00 29 1010.3
20260504011537 85 46 0.9 3.5 0.00 0.00 0.00 28 1010.4
20260504010029 85 13 0.9 4.3 0.00 0.00 0.00 28 1010.6
20260504004610 86 12 0.0 2.6 0.00 0.00 0.00 28 1010.7
20260504003036 86 13 0.0 2.6 0.00 0.00 0.00 27 1010.8
20260504001607 86 43 0.0 5.2 0.00 0.00 0.00 25 1010.9
20260504000033 86 53 0.9 4.3 0.00 0.00 0.00 25 1011.1
20260503234534 88 71 1.7 6.1 0.00 0.00 0.00 24 1011.2
20260503233116 87 84 0.0 2.6 0.00 0.00 0.00 25 1011.5
20260503231530 87 38 0.9 2.6 0.00 0.00 0.00 24 1011.6
20260503230029 88 113 1.7 5.2 0.00 0.00 0.00 23 1012.0
20260503224650 87 73 0.9 5.2 0.00 0.00 0.00 24 1012.3
20260503221535 87 110 2.6 7.8 0.00 0.00 0.00 23 1012.8
20260503220107 87 102 1.7 6.1 0.00 0.00 0.00 24 1013.0
20260503214529 87 104 1.7 6.1 0.00 0.00 0.00 24 1013.2
20260503213030 86 105 3.5 8.7 0.00 0.00 0.00 23 1013.4
20260503211528 86 83 2.6 11.3 0.00 0.00 0.00 24 1013.7
20260503210031 86 101 3.5 9.6 0.00 0.00 0.00 25 1013.8
20260503204536 86 60 3.5 7.8 0.00 0.00 0.00 27 1014.0
20260503203037 86 82 2.6 7.8 0.00 0.00 0.00 28 1014.1
20260503201535 86 103 2.6 8.7 0.00 0.00 0.00 30 1014.3
20260503200038 85 67 1.7 7.0 0.00 0.00 0.00 36 1014.4
20260503194529 84 329 0.9 3.5 0.00 0.00 0.00 40 1014.6
20260503191536 82 349 0.9 3.5 0.00 0.00 0.00 42 1014.9
20260503190030 81 358 0.9 3.5 0.00 0.00 0.00 45 1015.2
20260503184535 80 22 0.0 3.5 0.00 0.00 0.00 46 1015.4
20260503181534 79 296 0.0 3.5 0.00 0.00 0.00 48 1015.7
20260503180036 77 341 0.0 2.6 0.00 0.00 0.00 49 1015.8
20260503173037 76 27 0.0 3.5 0.00 0.00 0.00 48 1016.2
20260503171530 73 24 0.0 1.7 0.00 0.00 0.00 51 1016.3
20260503081534 52 225 0.0 1.7 0.00 0.00 0.00 91 1016.5
20260503071533 53 225 0.9 2.6 0.00 0.00 0.00 89 1016.5
20260503054532 56 202 0.0 1.7 0.00 0.00 0.00 86 1016.4
20260503053030 56 202 0.0 1.7 0.00 0.00 0.00 85 1016.4
20260503051535 57 208 0.9 2.6 0.00 0.00 0.00 85 1016.3